Time,TemperatureF,DewpointF,PressureIn,WindDirection,WindDirectionDegrees,WindSpeedMPH,WindSpeedGustMPH,Humidity,HourlyPrecipIn,Conditions,Clouds,dailyrainin,SoftwareType,DateUTC
2013-10-20 00:00:00,48.9,43.3,30.09,NE,36,0.0,0.0,81,0.00,,SKC,0.00,VWS V14.01,2013-10-20 05:00:00,
2013-10-20 00:01:00,48.7,43.5,30.09,NE,36,0.0,0.0,82,0.00,,SKC,0.00,VWS V14.01,2013-10-20 05:01:00,
2013-10-20 00:06:00,48.6,43.7,30.09,NE,36,0.0,0.0,83,0.00,,SKC,0.00,VWS V14.01,2013-10-20 05:06:00,
2013-10-20 00:10:00,48.6,43.7,30.09,NE,36,0.0,0.0,83,0.00,,SKC,0.00,VWS V14.01,2013-10-20 05:10:00,
2013-10-20 00:11:00,48.5,43.6,30.09,NE,36,0.0,0.0,83,0.00,,SKC,0.00,VWS V14.01,2013-10-20 05:11:00,
2013-10-20 00:16:00,48.3,43.4,30.09,NE,36,0.0,0.0,83,0.00,,SKC,0.00,VWS V14.01,2013-10-20 05:16:00,
2013-10-20 00:20:00,48.4,43.5,30.09,NE,36,0.0,0.0,83,0.00,,SKC,0.00,VWS V14.01,2013-10-20 05:20:00,
2013-10-20 00:21:00,48.2,43.6,30.09,NE,36,0.0,0.0,84,0.00,,SKC,0.00,VWS V14.01,2013-10-20 05:21:00,
2013-10-20 00:26:00,48.2,43.6,30.08,NE,36,0.0,0.0,84,0.00,,SKC,0.00,VWS V14.01,2013-10-20 05:26:00,
2013-10-20 00:30:00,48.2,43.6,30.09,NE,36,0.0,0.0,84,0.00,,SKC,0.00,VWS V14.01,2013-10-20 05:30:00,
2013-10-20 00:31:00,48.1,43.5,30.08,NE,36,0.0,0.0,84,0.00,,SKC,0.00,VWS V14.01,2013-10-20 05:31:00,
2013-10-20 00:36:00,48.2,43.9,30.08,NE,36,0.0,0.0,85,0.00,,SKC,0.00,VWS V14.01,2013-10-20 05:36:00,
2013-10-20 00:40:00,48.2,43.6,30.08,NE,36,0.0,0.0,84,0.00,,SKC,0.00,VWS V14.01,2013-10-20 05:40:00,
2013-10-20 00:41:00,48.2,43.9,30.08,NE,36,0.0,0.0,85,0.00,,SKC,0.00,VWS V14.01,2013-10-20 05:41:00,
2013-10-20 00:46:00,48.1,43.5,30.08,NE,36,0.0,0.0,84,0.00,,SKC,0.00,VWS V14.01,2013-10-20 05:46:00,
2013-10-20 00:50:00,48.1,43.5,30.08,NE,36,0.0,0.0,84,0.00,,SKC,0.00,VWS V14.01,2013-10-20 05:50:00,
2013-10-20 00:51:00,48.1,43.5,30.08,NE,36,0.0,0.0,84,0.00,,SKC,0.00,VWS V14.01,2013-10-20 05:51:00,
2013-10-20 00:56:00,47.9,43.3,30.08,NE,36,0.0,0.0,84,0.00,,SKC,0.00,VWS V14.01,2013-10-20 05:56:00,
2013-10-20 01:00:00,47.9,43.3,30.07,NE,36,0.0,0.0,84,0.00,,SKC,0.00,VWS V14.01,2013-10-20 06:00:00,
2013-10-20 01:01:00,47.8,43.2,30.08,NE,36,0.0,0.0,84,0.00,,SKC,0.00,VWS V14.01,2013-10-20 06:01:00,
2013-10-20 01:06:00,47.7,43.1,30.08,NE,36,0.0,0.0,84,0.00,,SKC,0.00,VWS V14.01,2013-10-20 06:06:00,
2013-10-20 01:10:00,47.7,43.1,30.08,NE,36,0.0,0.0,84,0.00,,SKC,0.00,VWS V14.01,2013-10-20 06:10:00,
2013-10-20 01:11:00,47.5,42.9,30.07,NE,36,0.0,0.0,84,0.00,,SKC,0.00,VWS V14.01,2013-10-20 06:11:00,
2013-10-20 01:16:00,47.4,42.8,30.07,NE,36,0.0,0.0,84,0.00,,SKC,0.00,VWS V14.01,2013-10-20 06:16:00,
2013-10-20 01:20:00,47.4,42.8,30.07,NE,36,0.0,0.0,84,0.00,,SKC,0.00,VWS V14.01,2013-10-20 06:20:00,
2013-10-20 01:21:00,47.3,43.0,30.07,NE,36,0.0,0.0,85,0.00,,SKC,0.00,VWS V14.01,2013-10-20 06:21:00,
2013-10-20 01:26:00,47.1,42.8,30.07,NE,36,0.0,0.0,85,0.00,,SKC,0.00,VWS V14.01,2013-10-20 06:26:00,
2013-10-20 01:30:00,47.2,42.9,30.07,NE,36,0.0,0.0,85,0.00,,SKC,0.00,VWS V14.01,2013-10-20 06:30:00,
2013-10-20 01:31:00,47.1,43.1,30.07,NE,36,0.0,0.0,86,0.00,,SKC,0.00,VWS V14.01,2013-10-20 06:31:00,
2013-10-20 01:36:00,47.1,43.1,30.06,NE,36,0.0,0.0,86,0.00,,SKC,0.00,VWS V14.01,2013-10-20 06:36:00,
2013-10-20 01:40:00,47.1,43.1,30.06,NE,36,0.0,0.0,86,0.00,,SKC,0.00,VWS V14.01,2013-10-20 06:40:00,
2013-10-20 01:41:00,47.1,43.1,30.06,NE,36,0.0,0.0,86,0.00,,SKC,0.00,VWS V14.01,2013-10-20 06:41:00,
2013-10-20 01:46:00,47.0,43.0,30.06,NE,36,0.0,0.0,86,0.00,,SKC,0.00,VWS V14.01,2013-10-20 06:46:00,
2013-10-20 01:50:00,47.0,43.0,30.06,NE,36,0.0,0.0,86,0.00,,SKC,0.00,VWS V14.01,2013-10-20 06:50:00,
2013-10-20 01:51:00,47.0,43.0,30.06,NE,36,0.0,0.0,86,0.00,,SKC,0.00,VWS V14.01,2013-10-20 06:51:00,
2013-10-20 01:56:00,47.0,43.0,30.06,NE,36,0.0,0.0,86,0.00,,SKC,0.00,VWS V14.01,2013-10-20 06:56:00,
2013-10-20 02:00:00,47.0,43.0,30.06,NE,36,0.0,0.0,86,0.00,,SKC,0.00,VWS V14.01,2013-10-20 07:00:00,
2013-10-20 02:01:00,47.0,43.0,30.06,NE,36,0.0,0.0,86,0.00,,SKC,0.00,VWS V14.01,2013-10-20 07:01:00,
2013-10-20 02:06:00,47.1,43.1,30.06,NE,36,0.0,0.0,86,0.00,,SKC,0.00,VWS V14.01,2013-10-20 07:06:00,
2013-10-20 02:10:00,47.1,43.1,30.06,NE,36,0.0,0.0,86,0.00,,SKC,0.00,VWS V14.01,2013-10-20 07:10:00,
2013-10-20 02:11:00,47.2,43.2,30.07,NE,36,0.0,0.0,86,0.00,,SKC,0.00,VWS V14.01,2013-10-20 07:11:00,
2013-10-20 02:16:00,47.2,43.2,30.06,NE,36,0.0,0.0,86,0.00,,SKC,0.00,VWS V14.01,2013-10-20 07:16:00,
2013-10-20 02:20:00,47.2,43.2,30.06,NE,36,0.0,0.0,86,0.00,,SKC,0.00,VWS V14.01,2013-10-20 07:20:00,
2013-10-20 02:21:00,47.2,42.9,30.06,NE,36,0.0,0.0,85,0.00,,SKC,0.00,VWS V14.01,2013-10-20 07:21:00,
2013-10-20 02:26:00,47.1,43.1,30.06,NE,36,0.0,0.0,86,0.00,,SKC,0.00,VWS V14.01,2013-10-20 07:26:00,
2013-10-20 02:30:00,47.1,43.1,30.06,NE,36,0.0,0.0,86,0.00,,SKC,0.00,VWS V14.01,2013-10-20 07:30:00,
2013-10-20 02:31:00,47.0,42.7,30.06,NE,36,0.0,0.0,85,0.00,,SKC,0.00,VWS V14.01,2013-10-20 07:31:00,
2013-10-20 02:36:00,47.0,42.7,30.06,NE,36,0.0,0.0,85,0.00,,SKC,0.00,VWS V14.01,2013-10-20 07:36:00,
2013-10-20 02:40:00,47.0,42.7,30.06,NE,36,0.0,0.0,85,0.00,,SKC,0.00,VWS V14.01,2013-10-20 07:40:00,
2013-10-20 02:41:00,46.9,42.6,30.06,NE,36,0.0,0.0,85,0.00,,SKC,0.00,VWS V14.01,2013-10-20 07:41:00,
2013-10-20 02:46:00,46.8,42.5,30.06,NE,36,0.0,0.0,85,0.00,,SKC,0.00,VWS V14.01,2013-10-20 07:46:00,
2013-10-20 02:50:00,46.8,42.5,30.06,NE,36,0.0,0.0,85,0.00,,SKC,0.00,VWS V14.01,2013-10-20 07:50:00,
2013-10-20 02:51:00,46.7,42.4,30.06,NE,36,0.0,0.0,85,0.00,,SKC,0.00,VWS V14.01,2013-10-20 07:51:00,
2013-10-20 02:56:00,46.5,42.2,30.06,NE,36,0.0,0.0,85,0.00,,SKC,0.00,VWS V14.01,2013-10-20 07:56:00,
2013-10-20 03:00:00,46.6,42.3,30.06,NE,36,0.0,0.0,85,0.00,,SKC,0.00,VWS V14.01,2013-10-20 08:00:00,
2013-10-20 03:01:00,46.4,42.5,30.05,NE,36,0.0,0.0,86,0.00,,SKC,0.00,VWS V14.01,2013-10-20 08:01:00,
2013-10-20 03:06:00,46.3,42.3,30.05,NE,36,0.0,0.0,86,0.00,,SKC,0.00,VWS V14.01,2013-10-20 08:06:00,
2013-10-20 03:10:00,46.3,42.3,30.05,NE,36,0.0,0.0,86,0.00,,SKC,0.00,VWS V14.01,2013-10-20 08:10:00,
2013-10-20 03:11:00,46.2,42.2,30.06,NE,36,0.0,0.0,86,0.00,,SKC,0.00,VWS V14.01,2013-10-20 08:11:00,
2013-10-20 03:16:00,46.2,42.2,30.05,NE,36,0.0,0.0,86,0.00,,SKC,0.00,VWS V14.01,2013-10-20 08:16:00,
2013-10-20 03:20:00,46.2,42.2,30.05,NE,36,0.0,0.0,86,0.00,,SKC,0.00,VWS V14.01,2013-10-20 08:20:00,
2013-10-20 03:21:00,46.1,42.2,30.05,NE,36,0.0,0.0,86,0.00,,SKC,0.00,VWS V14.01,2013-10-20 08:21:00,
2013-10-20 03:26:00,46.1,42.2,30.05,NE,36,0.0,0.0,86,0.00,,SKC,0.00,VWS V14.01,2013-10-20 08:26:00,
2013-10-20 03:30:00,46.1,42.2,30.05,NE,36,0.0,0.0,86,0.00,,SKC,0.00,VWS V14.01,2013-10-20 08:30:00,
2013-10-20 03:31:00,46.0,42.0,30.04,NE,36,0.0,0.0,86,0.00,,SKC,0.00,VWS V14.01,2013-10-20 08:31:00,
2013-10-20 03:36:00,45.9,42.3,30.04,NE,36,0.0,0.0,87,0.00,,SKC,0.00,VWS V14.01,2013-10-20 08:36:00,
2013-10-20 03:40:00,46.0,42.3,30.04,NE,36,0.0,0.0,87,0.00,,SKC,0.00,VWS V14.01,2013-10-20 08:40:00,
2013-10-20 03:41:00,45.9,42.3,30.04,NE,36,0.0,0.0,87,0.00,,SKC,0.00,VWS V14.01,2013-10-20 08:41:00,
2013-10-20 03:45:00,45.8,42.2,30.04,NE,36,0.0,0.0,87,0.00,,SKC,0.00,VWS V14.01,2013-10-20 08:45:00,
2013-10-20 03:50:00,45.8,42.2,30.04,NE,36,0.0,0.0,87,0.00,,SKC,0.00,VWS V14.01,2013-10-20 08:50:00,
2013-10-20 03:55:00,45.7,42.1,30.04,NE,36,0.0,0.0,87,0.00,,SKC,0.00,VWS V14.01,2013-10-20 08:55:00,
2013-10-20 04:00:00,45.6,42.0,30.04,NE,36,0.0,0.0,87,0.00,,SKC,0.00,VWS V14.01,2013-10-20 09:00:00,
2013-10-20 04:05:00,45.6,42.0,30.04,NE,36,0.0,0.0,87,0.00,,SKC,0.00,VWS V14.01,2013-10-20 09:05:00,
2013-10-20 04:10:00,45.5,41.9,30.05,NE,36,0.0,0.0,87,0.00,,SKC,0.00,VWS V14.01,2013-10-20 09:10:00,
2013-10-20 04:15:00,45.5,42.2,30.04,NE,36,0.0,0.0,88,0.00,,SKC,0.00,VWS V14.01,2013-10-20 09:15:00,
2013-10-20 04:20:00,45.4,42.1,30.04,NE,36,0.0,0.0,88,0.00,,SKC,0.00,VWS V14.01,2013-10-20 09:20:00,
2013-10-20 04:25:00,45.5,42.2,30.04,NE,36,0.0,0.0,88,0.00,,SKC,0.00,VWS V14.01,2013-10-20 09:25:00,
2013-10-20 04:30:00,45.4,42.1,30.04,NE,36,0.0,0.0,88,0.00,,SKC,0.00,VWS V14.01,2013-10-20 09:30:00,
2013-10-20 04:35:00,45.4,42.1,30.04,NE,36,0.0,0.0,88,0.00,,SKC,0.00,VWS V14.01,2013-10-20 09:35:00,
2013-10-20 04:40:00,45.4,42.1,30.04,NE,36,0.0,0.0,88,0.00,,SKC,0.00,VWS V14.01,2013-10-20 09:40:00,
2013-10-20 04:45:00,45.4,42.1,30.04,NE,36,0.0,0.0,88,0.00,,SKC,0.00,VWS V14.01,2013-10-20 09:45:00,
2013-10-20 04:50:00,45.3,42.0,30.04,NE,36,0.0,0.0,88,0.00,,SKC,0.00,VWS V14.01,2013-10-20 09:50:00,
2013-10-20 04:55:00,45.3,43.1,30.04,NE,36,0.0,0.0,92,0.00,,SKC,0.00,VWS V14.01,2013-10-20 09:55:00,
2013-10-20 05:00:00,45.2,41.9,30.04,NE,36,0.0,0.0,88,0.00,,SKC,0.00,VWS V14.01,2013-10-20 10:00:00,
2013-10-20 05:05:00,45.2,41.9,30.04,NE,36,0.0,0.0,88,0.00,,SKC,0.00,VWS V14.01,2013-10-20 10:05:00,
2013-10-20 05:10:00,45.2,41.9,30.04,NE,36,0.0,0.0,88,0.00,,SKC,0.00,VWS V14.01,2013-10-20 10:10:00,
2013-10-20 05:15:00,45.2,41.9,30.04,NE,36,0.0,0.0,88,0.00,,SKC,0.00,VWS V14.01,2013-10-20 10:15:00,
2013-10-20 05:20:00,45.1,41.8,30.04,NE,36,0.0,0.0,88,0.00,,SKC,0.00,VWS V14.01,2013-10-20 10:20:00,
2013-10-20 05:25:00,45.0,41.7,30.04,NE,36,0.0,0.0,88,0.00,,SKC,0.00,VWS V14.01,2013-10-20 10:25:00,
2013-10-20 05:30:00,44.9,41.6,30.04,NE,36,0.0,0.0,88,0.00,,SKC,0.00,VWS V14.01,2013-10-20 10:30:00,
2013-10-20 05:35:00,44.8,41.5,30.05,NE,36,0.0,0.0,88,0.00,,SKC,0.00,VWS V14.01,2013-10-20 10:35:00,
2013-10-20 05:40:00,44.7,41.4,30.05,NE,36,0.0,0.0,88,0.00,,SKC,0.00,VWS V14.01,2013-10-20 10:40:00,
2013-10-20 05:45:00,44.7,41.4,30.05,NE,36,0.0,0.0,88,0.00,,SKC,0.00,VWS V14.01,2013-10-20 10:45:00,
2013-10-20 05:50:00,44.6,41.6,30.05,NE,36,0.0,0.0,89,0.00,,SKC,0.00,VWS V14.01,2013-10-20 10:50:00,
2013-10-20 05:55:00,44.6,41.6,30.05,NE,36,0.0,0.0,89,0.00,,SKC,0.00,VWS V14.01,2013-10-20 10:55:00,
2013-10-20 06:00:00,44.5,41.5,30.04,NE,36,0.0,0.0,89,0.00,,SKC,0.00,VWS V14.01,2013-10-20 11:00:00,
2013-10-20 06:05:00,44.5,41.5,30.04,NE,36,0.0,0.0,89,0.00,,SKC,0.00,VWS V14.01,2013-10-20 11:05:00,
2013-10-20 06:10:00,44.4,41.4,30.04,NE,36,0.0,0.0,89,0.00,,SKC,0.00,VWS V14.01,2013-10-20 11:10:00,
2013-10-20 06:15:00,44.3,41.3,30.04,NE,36,0.0,0.0,89,0.00,,SKC,0.00,VWS V14.01,2013-10-20 11:15:00,
2013-10-20 06:20:00,44.3,41.3,30.05,NE,36,0.0,0.0,89,0.00,,SKC,0.00,VWS V14.01,2013-10-20 11:20:00,
2013-10-20 06:25:00,44.3,41.3,30.05,NE,36,0.0,0.0,89,0.00,,SKC,0.00,VWS V14.01,2013-10-20 11:25:00,
2013-10-20 06:30:00,44.4,41.4,30.05,NE,36,0.0,0.0,89,0.00,,SKC,0.00,VWS V14.01,2013-10-20 11:30:00,
2013-10-20 06:35:00,44.4,41.4,30.05,NE,36,0.0,0.0,89,0.00,,SKC,0.00,VWS V14.01,2013-10-20 11:35:00,
2013-10-20 06:40:00,44.4,41.4,30.05,NE,36,0.0,0.0,89,0.00,,SKC,0.00,VWS V14.01,2013-10-20 11:40:00,
2013-10-20 06:45:00,44.4,41.7,30.05,NE,36,0.0,0.0,90,0.00,,SKC,0.00,VWS V14.01,2013-10-20 11:45:00,
2013-10-20 06:50:00,44.5,41.8,30.05,NE,36,0.0,0.0,90,0.00,,SKC,0.00,VWS V14.01,2013-10-20 11:50:00,
2013-10-20 06:55:00,44.6,41.8,30.05,NE,36,0.0,0.0,90,0.00,,SKC,0.00,VWS V14.01,2013-10-20 11:55:00,
2013-10-20 07:00:00,44.5,41.5,30.05,NE,36,0.0,0.0,89,0.00,,SKC,0.00,VWS V14.01,2013-10-20 12:00:00,
2013-10-20 07:05:00,44.6,41.6,30.05,NE,36,0.0,0.0,89,0.00,,SKC,0.00,VWS V14.01,2013-10-20 12:05:00,
2013-10-20 07:10:00,44.6,41.6,30.05,NE,36,0.0,0.0,89,0.00,,SKC,0.00,VWS V14.01,2013-10-20 12:10:00,
2013-10-20 07:15:00,44.6,41.6,30.06,NE,36,0.0,0.0,89,0.00,,SKC,0.00,VWS V14.01,2013-10-20 12:15:00,
2013-10-20 07:20:00,44.7,41.7,30.06,NE,36,0.0,0.0,89,0.00,,SKC,0.00,VWS V14.01,2013-10-20 12:20:00,
2013-10-20 07:25:00,44.8,41.8,30.06,NE,36,0.0,0.0,89,0.00,,SKC,0.00,VWS V14.01,2013-10-20 12:25:00,
2013-10-20 07:30:00,44.9,41.9,30.06,NE,36,0.0,0.0,89,0.00,,SKC,0.00,VWS V14.01,2013-10-20 12:30:00,
2013-10-20 07:35:00,44.8,41.8,30.06,NE,36,0.0,0.0,89,0.00,,SKC,0.00,VWS V14.01,2013-10-20 12:35:00,
2013-10-20 07:40:00,44.7,41.7,30.06,NE,36,0.0,0.0,89,0.00,,SKC,0.00,VWS V14.01,2013-10-20 12:40:00,
2013-10-20 07:45:00,44.8,41.8,30.06,NE,36,0.0,0.0,89,0.00,,SKC,0.00,VWS V14.01,2013-10-20 12:45:00,
2013-10-20 07:50:00,44.7,41.7,30.06,NE,36,0.0,0.0,89,0.00,,SKC,0.00,VWS V14.01,2013-10-20 12:50:00,
2013-10-20 07:55:00,44.7,41.4,30.06,NE,36,0.0,0.0,88,0.00,,SKC,0.00,VWS V14.01,2013-10-20 12:55:00,
2013-10-20 08:00:00,44.6,41.6,30.06,NE,36,0.0,0.0,89,0.00,,SKC,0.00,VWS V14.01,2013-10-20 13:00:00,
2013-10-20 08:05:00,44.6,41.6,30.06,NE,36,0.0,0.0,89,0.00,,SKC,0.00,VWS V14.01,2013-10-20 13:05:00,
2013-10-20 08:10:00,44.6,41.6,30.07,NE,36,0.0,0.0,89,0.00,,SKC,0.00,VWS V14.01,2013-10-20 13:10:00,
2013-10-20 08:15:00,44.7,41.7,30.07,NE,36,0.0,0.0,89,0.00,,SKC,0.00,VWS V14.01,2013-10-20 13:15:00,
2013-10-20 08:20:00,44.7,42.0,30.07,NE,36,0.0,0.0,90,0.00,,SKC,0.00,VWS V14.01,2013-10-20 13:20:00,
2013-10-20 08:25:00,44.7,42.0,30.07,NE,36,0.0,0.0,90,0.00,,SKC,0.00,VWS V14.01,2013-10-20 13:25:00,
2013-10-20 08:30:00,44.9,42.2,30.07,NE,36,0.0,0.0,90,0.00,,SKC,0.00,VWS V14.01,2013-10-20 13:30:00,
2013-10-20 08:35:00,45.0,42.5,30.07,NE,36,0.0,0.0,91,0.00,,SKC,0.00,VWS V14.01,2013-10-20 13:35:00,
2013-10-20 08:40:00,45.3,42.8,30.07,NE,36,0.0,0.0,91,0.00,,SKC,0.00,VWS V14.01,2013-10-20 13:40:00,
2013-10-20 08:45:00,46.0,43.8,30.07,NE,36,0.0,0.0,92,0.00,,SKC,0.00,VWS V14.01,2013-10-20 13:45:00,
2013-10-20 08:50:00,47.0,45.1,30.07,NE,36,0.0,0.0,93,0.00,,SKC,0.00,VWS V14.01,2013-10-20 13:50:00,
2013-10-20 08:55:00,48.3,45.5,30.07,NE,36,0.0,0.0,90,0.00,,SKC,0.00,VWS V14.01,2013-10-20 13:55:00,
2013-10-20 09:00:00,49.9,45.6,30.07,NE,36,0.0,0.0,85,0.00,,SKC,0.00,VWS V14.01,2013-10-20 14:00:00,
2013-10-20 09:05:00,51.6,46.0,30.07,NE,36,0.0,0.0,81,0.00,,SKC,0.00,VWS V14.01,2013-10-20 14:05:00,
2013-10-20 09:10:00,53.1,46.1,30.07,NE,36,0.0,2.0,77,0.00,,SKC,0.00,VWS V14.01,2013-10-20 14:10:00,
2013-10-20 09:15:00,54.3,45.8,30.07,NE,36,0.0,0.0,73,0.00,,SKC,0.00,VWS V14.01,2013-10-20 14:15:00,
2013-10-20 09:20:00,55.5,45.9,30.08,NE,36,0.0,3.0,70,0.00,,SKC,0.00,VWS V14.01,2013-10-20 14:20:00,
2013-10-20 09:25:00,56.4,46.8,30.07,NE,36,0.0,0.0,70,0.00,,SKC,0.00,VWS V14.01,2013-10-20 14:25:00,
2013-10-20 09:30:00,57.2,46.4,30.08,NE,36,0.0,0.0,67,0.00,,SKC,0.00,VWS V14.01,2013-10-20 14:30:00,
2013-10-20 09:35:00,57.9,46.6,30.08,NE,36,0.0,0.0,66,0.00,,SKC,0.00,VWS V14.01,2013-10-20 14:35:00,
2013-10-20 09:40:00,58.5,46.8,30.08,NE,36,0.0,0.0,65,0.00,,SKC,0.00,VWS V14.01,2013-10-20 14:40:00,
2013-10-20 09:45:00,58.8,46.2,30.08,NE,36,1.0,3.0,63,0.00,,SKC,0.00,VWS V14.01,2013-10-20 14:45:00,
2013-10-20 09:50:00,59.1,46.5,30.08,NE,36,0.0,5.0,63,0.00,,SKC,0.00,VWS V14.01,2013-10-20 14:50:00,
2013-10-20 09:55:00,59.4,46.8,30.09,NE,36,0.0,0.0,63,0.00,,SKC,0.00,VWS V14.01,2013-10-20 14:55:00,
2013-10-20 10:00:00,60.0,47.4,30.08,NE,36,0.0,0.0,63,0.00,,SKC,0.00,VWS V14.01,2013-10-20 15:00:00,
2013-10-20 10:05:00,60.4,46.9,30.08,NE,37,0.0,0.0,61,0.00,,SKC,0.00,VWS V14.01,2013-10-20 15:05:00,
2013-10-20 10:10:00,60.6,47.1,30.08,NE,43,3.0,6.0,61,0.00,,SKC,0.00,VWS V14.01,2013-10-20 15:10:00,
2013-10-20 10:15:00,60.9,47.8,30.08,NE,43,1.0,2.0,62,0.00,,SKC,0.00,VWS V14.01,2013-10-20 15:15:00,
2013-10-20 10:20:00,61.4,47.4,30.08,NE,43,0.0,3.0,60,0.00,,SKC,0.00,VWS V14.01,2013-10-20 15:20:00,
2013-10-20 10:25:00,61.9,47.4,30.08,NE,44,0.0,0.0,59,0.00,,SKC,0.00,VWS V14.01,2013-10-20 15:25:00,
2013-10-20 10:30:00,62.2,47.3,30.08,NE,44,0.0,4.0,58,0.00,,SKC,0.00,VWS V14.01,2013-10-20 15:30:00,
2013-10-20 10:35:00,62.5,47.1,30.08,NE,47,0.0,0.0,57,0.00,,SKC,0.00,VWS V14.01,2013-10-20 15:35:00,
2013-10-20 10:40:00,62.9,47.5,30.07,NE,47,0.0,4.0,57,0.00,,SKC,0.00,VWS V14.01,2013-10-20 15:40:00,
2013-10-20 10:45:00,63.5,47.1,30.08,NE,47,0.0,0.0,55,0.00,,SKC,0.00,VWS V14.01,2013-10-20 15:45:00,
2013-10-20 10:50:00,63.7,46.3,30.07,NE,50,0.0,4.0,53,0.00,,SKC,0.00,VWS V14.01,2013-10-20 15:50:00,
2013-10-20 10:55:00,63.9,47.0,30.07,NE,51,0.0,0.0,54,0.00,,SKC,0.00,VWS V14.01,2013-10-20 15:55:00,
2013-10-20 11:00:00,64.1,47.1,30.08,NE,51,0.0,3.0,54,0.00,,SKC,0.00,VWS V14.01,2013-10-20 16:00:00,
2013-10-20 11:05:00,64.4,46.9,30.07,ENE,64,0.0,0.0,53,0.00,,SKC,0.00,VWS V14.01,2013-10-20 16:05:00,
2013-10-20 11:10:00,64.6,47.1,30.07,ENE,65,0.0,2.0,53,0.00,,SKC,0.00,VWS V14.01,2013-10-20 16:10:00,
2013-10-20 11:15:00,64.9,47.9,30.07,ENE,65,0.0,0.0,54,0.00,,SKC,0.00,VWS V14.01,2013-10-20 16:15:00,
2013-10-20 11:20:00,65.2,48.2,30.07,ENE,66,0.0,5.0,54,0.00,,SKC,0.00,VWS V14.01,2013-10-20 16:20:00,
2013-10-20 11:25:00,65.5,48.4,30.07,ENE,66,2.0,4.0,54,0.00,,SKC,0.00,VWS V14.01,2013-10-20 16:25:00,
2013-10-20 11:30:00,65.8,48.7,30.07,ENE,66,0.0,4.0,54,0.00,,SKC,0.00,VWS V14.01,2013-10-20 16:30:00,
2013-10-20 11:35:00,66.3,47.7,30.07,ENE,66,0.0,0.0,51,0.00,,SKC,0.00,VWS V14.01,2013-10-20 16:35:00,
2013-10-20 11:36:00,66.3,48.2,30.07,ENE,66,0.0,0.0,52,0.00,,SKC,0.00,VWS V14.01,2013-10-20 16:36:00,
2013-10-20 11:40:00,66.3,47.7,30.07,ENE,66,0.0,4.0,51,0.00,,SKC,0.00,VWS V14.01,2013-10-20 16:40:00,
2013-10-20 11:41:00,66.8,48.6,30.07,ENE,67,0.0,5.0,52,0.00,,SKC,0.00,VWS V14.01,2013-10-20 16:41:00,
2013-10-20 11:46:00,67.0,47.8,30.07,ENE,67,0.0,0.0,50,0.00,,SKC,0.00,VWS V14.01,2013-10-20 16:46:00,
2013-10-20 11:50:00,67.0,48.3,30.07,ENE,67,0.0,5.0,51,0.00,,SKC,0.00,VWS V14.01,2013-10-20 16:50:00,
2013-10-20 11:51:00,67.4,48.1,30.07,ENE,67,2.0,3.0,50,0.00,,SKC,0.00,VWS V14.01,2013-10-20 16:51:00,
2013-10-20 11:56:00,67.8,48.5,30.06,ENE,75,0.0,1.0,50,0.00,,SKC,0.00,VWS V14.01,2013-10-20 16:56:00,
2013-10-20 12:00:00,67.7,48.9,30.06,ENE,75,1.0,7.0,51,0.00,,SKC,0.00,VWS V14.01,2013-10-20 17:00:00,
2013-10-20 12:01:00,68.1,47.7,30.06,East,80,0.0,7.0,48,0.00,,SKC,0.00,VWS V14.01,2013-10-20 17:01:00,
2013-10-20 12:06:00,68.5,48.1,30.06,East,82,0.0,6.0,48,0.00,,SKC,0.00,VWS V14.01,2013-10-20 17:06:00,
2013-10-20 12:10:00,68.4,48.0,30.06,East,81,5.0,7.0,48,0.00,,SKC,0.00,VWS V14.01,2013-10-20 17:10:00,
2013-10-20 12:11:00,68.7,48.8,30.06,East,83,0.0,7.0,49,0.00,,SKC,0.00,VWS V14.01,2013-10-20 17:11:00,
2013-10-20 12:16:00,69.0,48.0,30.06,East,84,0.0,2.0,47,0.00,,SKC,0.00,VWS V14.01,2013-10-20 17:16:00,
2013-10-20 12:20:00,69.0,49.1,30.06,East,84,0.0,7.0,49,0.00,,SKC,0.00,VWS V14.01,2013-10-20 17:20:00,
2013-10-20 12:21:00,69.4,47.7,30.06,East,84,0.0,2.0,46,0.00,,SKC,0.00,VWS V14.01,2013-10-20 17:21:00,
2013-10-20 12:26:00,69.7,47.4,30.05,East,88,1.0,8.0,45,0.00,,SKC,0.00,VWS V14.01,2013-10-20 17:26:00,
2013-10-20 12:30:00,69.6,47.9,30.05,East,84,1.0,7.0,46,0.00,,SKC,0.00,VWS V14.01,2013-10-20 17:30:00,
2013-10-20 12:31:00,69.7,47.4,30.05,East,98,0.0,10.0,45,0.00,,SKC,0.00,VWS V14.01,2013-10-20 17:31:00,
2013-10-20 12:36:00,69.7,47.4,30.05,ESE,104,0.0,1.0,45,0.00,,SKC,0.00,VWS V14.01,2013-10-20 17:36:00,
2013-10-20 12:40:00,69.7,48.0,30.05,ESE,104,0.0,10.0,46,0.00,,SKC,0.00,VWS V14.01,2013-10-20 17:40:00,
2013-10-20 12:41:00,69.8,47.5,30.04,ESE,104,0.0,5.0,45,0.00,,SKC,0.00,VWS V14.01,2013-10-20 17:41:00,
2013-10-20 12:46:00,70.0,48.9,30.04,ESE,104,0.0,1.0,47,0.00,,SKC,0.00,VWS V14.01,2013-10-20 17:46:00,
2013-10-20 12:50:00,70.0,48.3,30.04,ESE,104,1.0,5.0,46,0.00,,SKC,0.00,VWS V14.01,2013-10-20 17:50:00,
2013-10-20 12:51:00,70.3,47.4,30.04,ESE,107,0.0,5.0,44,0.00,,SKC,0.00,VWS V14.01,2013-10-20 17:51:00,
2013-10-20 12:56:00,70.6,48.2,30.03,ESE,108,0.0,1.0,45,0.00,,SKC,0.00,VWS V14.01,2013-10-20 17:56:00,
2013-10-20 13:00:00,70.5,47.6,30.03,ESE,108,0.0,5.0,44,0.00,,SKC,0.00,VWS V14.01,2013-10-20 18:00:00,
2013-10-20 13:01:00,70.7,48.3,30.03,ESE,108,0.0,2.0,45,0.00,,SKC,0.00,VWS V14.01,2013-10-20 18:01:00,
2013-10-20 13:06:00,70.8,47.2,30.03,ESE,108,0.0,0.0,43,0.00,,SKC,0.00,VWS V14.01,2013-10-20 18:06:00,
2013-10-20 13:10:00,70.8,47.2,30.03,ESE,108,0.0,5.0,43,0.00,,SKC,0.00,VWS V14.01,2013-10-20 18:10:00,
2013-10-20 13:11:00,70.8,48.4,30.02,ESE,108,0.0,1.0,45,0.00,,SKC,0.00,VWS V14.01,2013-10-20 18:11:00,
2013-10-20 13:16:00,71.1,48.1,30.02,ESE,108,0.0,4.0,44,0.00,,SKC,0.00,VWS V14.01,2013-10-20 18:16:00,
2013-10-20 13:20:00,71.0,48.0,30.02,ESE,108,2.0,3.0,44,0.00,,SKC,0.00,VWS V14.01,2013-10-20 18:20:00,
2013-10-20 13:21:00,71.6,49.2,30.02,ESE,109,0.0,5.0,45,0.00,,SKC,0.00,VWS V14.01,2013-10-20 18:21:00,
2013-10-20 13:26:00,72.0,47.7,30.02,ESE,109,0.0,0.0,42,0.00,,SKC,0.00,VWS V14.01,2013-10-20 18:26:00,
2013-10-20 13:30:00,72.0,47.7,30.02,ESE,109,0.0,5.0,42,0.00,,SKC,0.00,VWS V14.01,2013-10-20 18:30:00,
2013-10-20 13:31:00,72.2,47.9,30.01,ESE,111,0.0,3.0,42,0.00,,SKC,0.00,VWS V14.01,2013-10-20 18:31:00,
2013-10-20 13:36:00,72.6,48.2,30.01,ESE,116,0.0,0.0,42,0.00,,SKC,0.00,VWS V14.01,2013-10-20 18:36:00,
2013-10-20 13:40:00,72.5,47.5,30.01,ESE,116,0.0,7.0,41,0.00,,SKC,0.00,VWS V14.01,2013-10-20 18:40:00,
2013-10-20 13:41:00,72.6,48.8,30.01,ESE,117,1.0,7.0,43,0.00,,SKC,0.00,VWS V14.01,2013-10-20 18:41:00,
2013-10-20 13:46:00,72.8,47.8,30.00,ESE,117,0.0,3.0,41,0.00,,SKC,0.00,VWS V14.01,2013-10-20 18:46:00,
2013-10-20 13:50:00,72.8,48.4,30.01,ESE,117,0.0,7.0,42,0.00,,SKC,0.00,VWS V14.01,2013-10-20 18:50:00,
2013-10-20 13:51:00,73.1,48.0,30.00,ESE,118,0.0,5.0,41,0.00,,SKC,0.00,VWS V14.01,2013-10-20 18:51:00,
2013-10-20 13:56:00,73.2,49.4,30.00,SE,126,0.0,4.0,43,0.00,,SKC,0.00,VWS V14.01,2013-10-20 18:56:00,
2013-10-20 14:00:00,73.1,48.7,30.00,SE,124,1.0,7.0,42,0.00,,SKC,0.00,VWS V14.01,2013-10-20 19:00:00,
2013-10-20 14:01:00,73.4,48.3,29.99,SE,126,0.0,4.0,41,0.00,,SKC,0.00,VWS V14.01,2013-10-20 19:01:00,
2013-10-20 14:06:00,73.6,48.5,29.99,SE,126,0.0,5.0,41,0.00,,SKC,0.00,VWS V14.01,2013-10-20 19:06:00,
2013-10-20 14:10:00,73.6,48.5,29.99,SE,126,0.0,4.0,41,0.00,,SKC,0.00,VWS V14.01,2013-10-20 19:10:00,
2013-10-20 14:11:00,73.6,48.5,29.99,SE,127,0.0,5.0,41,0.00,,SKC,0.00,VWS V14.01,2013-10-20 19:11:00,
2013-10-20 14:16:00,73.6,48.5,29.98,SE,127,0.0,1.0,41,0.00,,SKC,0.00,VWS V14.01,2013-10-20 19:16:00,
2013-10-20 14:20:00,73.5,48.4,29.99,SE,127,0.0,5.0,41,0.00,,SKC,0.00,VWS V14.01,2013-10-20 19:20:00,
2013-10-20 14:21:00,73.8,48.0,29.98,SE,146,0.0,7.0,40,0.00,,SKC,0.00,VWS V14.01,2013-10-20 19:21:00,
2013-10-20 14:26:00,74.1,49.6,29.98,SSE,155,6.0,7.0,42,0.00,,SKC,0.00,VWS V14.01,2013-10-20 19:26:00,
2013-10-20 14:30:00,74.1,48.9,29.98,SSE,150,1.0,7.0,41,0.00,,SKC,0.00,VWS V14.01,2013-10-20 19:30:00,
2013-10-20 14:31:00,74.5,49.3,29.97,South,169,0.0,11.0,41,0.00,,SKC,0.00,VWS V14.01,2013-10-20 19:31:00,
2013-10-20 14:36:00,74.8,48.9,29.97,SSE,163,3.0,5.0,40,0.00,,SKC,0.00,VWS V14.01,2013-10-20 19:36:00,
2013-10-20 14:40:00,74.8,48.9,29.97,SSE,163,2.0,11.0,40,0.00,,SKC,0.00,VWS V14.01,2013-10-20 19:40:00,
2013-10-20 14:41:00,75.0,49.1,29.97,SSE,163,3.0,6.0,40,0.00,,SKC,0.00,VWS V14.01,2013-10-20 19:41:00,
2013-10-20 14:46:00,75.1,49.2,29.96,SSE,163,0.0,2.0,40,0.00,,SKC,0.00,VWS V14.01,2013-10-20 19:46:00,
2013-10-20 14:50:00,75.1,49.2,29.96,SSE,163,0.0,6.0,40,0.00,,SKC,0.00,VWS V14.01,2013-10-20 19:50:00,
2013-10-20 14:51:00,75.3,49.3,29.96,SSE,161,0.0,7.0,40,0.00,,SKC,0.00,VWS V14.01,2013-10-20 19:51:00,
2013-10-20 14:56:00,75.3,49.3,29.96,SSE,162,0.0,0.0,40,0.00,,SKC,0.00,VWS V14.01,2013-10-20 19:56:00,
2013-10-20 15:00:00,75.3,49.3,29.96,SSE,162,0.0,7.0,40,0.00,,SKC,0.00,VWS V14.01,2013-10-20 20:00:00,
2013-10-20 15:01:00,75.4,50.1,29.96,SSE,162,0.0,3.0,41,0.00,,SKC,0.00,VWS V14.01,2013-10-20 20:01:00,
2013-10-20 15:06:00,75.6,50.9,29.96,SSE,162,0.0,2.0,42,0.00,,SKC,0.00,VWS V14.01,2013-10-20 20:06:00,
2013-10-20 15:10:00,75.5,50.8,29.96,SSE,162,0.0,4.0,42,0.00,,SKC,0.00,VWS V14.01,2013-10-20 20:10:00,
2013-10-20 15:11:00,75.8,50.5,29.95,SSE,160,0.0,8.0,41,0.00,,SKC,0.00,VWS V14.01,2013-10-20 20:11:00,
2013-10-20 15:16:00,75.6,49.6,29.95,SSE,154,0.0,3.0,40,0.00,,SKC,0.00,VWS V14.01,2013-10-20 20:16:00,
2013-10-20 15:20:00,75.6,49.6,29.95,SSE,154,0.0,8.0,40,0.00,,SKC,0.00,VWS V14.01,2013-10-20 20:20:00,
2013-10-20 15:21:00,75.4,50.7,29.95,SE,146,4.0,7.0,42,0.00,,SKC,0.00,VWS V14.01,2013-10-20 20:21:00,
2013-10-20 15:26:00,75.4,50.7,29.95,SSE,150,0.0,2.0,42,0.00,,SKC,0.00,VWS V14.01,2013-10-20 20:26:00,
2013-10-20 15:30:00,75.4,50.7,29.95,SSE,150,0.0,7.0,42,0.00,,SKC,0.00,VWS V14.01,2013-10-20 20:30:00,
2013-10-20 15:31:00,75.3,50.7,29.95,SSE,153,1.0,7.0,42,0.00,,SKC,0.00,VWS V14.01,2013-10-20 20:31:00,
2013-10-20 15:36:00,75.5,51.5,29.94,SSE,153,1.0,3.0,43,0.00,,SKC,0.00,VWS V14.01,2013-10-20 20:36:00,
2013-10-20 15:40:00,75.5,50.8,29.95,SSE,153,0.0,7.0,42,0.00,,SKC,0.00,VWS V14.01,2013-10-20 20:40:00,
2013-10-20 15:41:00,75.7,51.0,29.94,SSE,155,0.0,8.0,42,0.00,,SKC,0.00,VWS V14.01,2013-10-20 20:41:00,
2013-10-20 15:46:00,75.9,50.5,29.94,SSE,155,0.0,1.0,41,0.00,,SKC,0.00,VWS V14.01,2013-10-20 20:46:00,
2013-10-20 15:50:00,75.9,50.5,29.94,SSE,155,0.0,8.0,41,0.00,,SKC,0.00,VWS V14.01,2013-10-20 20:50:00,
2013-10-20 15:51:00,76.2,50.1,29.94,SSE,155,3.0,7.0,40,0.00,,SKC,0.00,VWS V14.01,2013-10-20 20:51:00,
2013-10-20 15:56:00,76.5,50.4,29.94,SSE,159,2.0,5.0,40,0.00,,SKC,0.00,VWS V14.01,2013-10-20 20:56:00,
2013-10-20 16:00:00,76.5,50.4,29.94,SSE,159,3.0,7.0,40,0.00,,SKC,0.00,VWS V14.01,2013-10-20 21:00:00,
2013-10-20 16:01:00,76.7,49.2,29.94,SSE,159,2.0,8.0,38,0.00,,SKC,0.00,VWS V14.01,2013-10-20 21:01:00,
2013-10-20 16:06:00,76.5,49.7,29.93,SSE,161,0.0,1.0,39,0.00,,SKC,0.00,VWS V14.01,2013-10-20 21:06:00,
2013-10-20 16:10:00,76.5,49.0,29.94,SSE,161,0.0,8.0,38,0.00,,SKC,0.00,VWS V14.01,2013-10-20 21:10:00,
2013-10-20 16:11:00,76.4,50.3,29.93,SSE,161,4.0,6.0,40,0.00,,SKC,0.00,VWS V14.01,2013-10-20 21:11:00,
2013-10-20 16:16:00,76.3,50.9,29.93,SSE,160,0.0,4.0,41,0.00,,SKC,0.00,VWS V14.01,2013-10-20 21:16:00,
2013-10-20 16:20:00,76.3,50.9,29.93,SSE,160,3.0,7.0,41,0.00,,SKC,0.00,VWS V14.01,2013-10-20 21:20:00,
2013-10-20 16:21:00,76.2,51.5,29.93,SSE,161,0.0,9.0,42,0.00,,SKC,0.00,VWS V14.01,2013-10-20 21:21:00,
2013-10-20 16:26:00,76.3,51.5,29.93,SSE,161,0.0,1.0,42,0.00,,SKC,0.00,VWS V14.01,2013-10-20 21:26:00,
2013-10-20 16:30:00,76.3,51.5,29.93,SSE,161,0.0,9.0,42,0.00,,SKC,0.00,VWS V14.01,2013-10-20 21:30:00,
2013-10-20 16:31:00,76.4,51.6,29.92,SSE,160,1.0,3.0,42,0.00,,SKC,0.00,VWS V14.01,2013-10-20 21:31:00,
2013-10-20 16:36:00,76.3,52.2,29.92,SSE,159,0.0,2.0,43,0.00,,SKC,0.00,VWS V14.01,2013-10-20 21:36:00,
2013-10-20 16:40:00,76.3,52.2,29.92,SSE,159,0.0,4.0,43,0.00,,SKC,0.00,VWS V14.01,2013-10-20 21:40:00,
2013-10-20 16:41:00,76.5,53.6,29.92,SSE,159,7.0,7.0,45,0.00,,SKC,0.00,VWS V14.01,2013-10-20 21:41:00,
2013-10-20 16:46:00,76.8,53.9,29.92,SSE,159,0.0,0.0,45,0.00,,SKC,0.00,VWS V14.01,2013-10-20 21:46:00,
2013-10-20 16:50:00,76.8,53.9,29.92,SSE,159,0.0,7.0,45,0.00,,SKC,0.00,VWS V14.01,2013-10-20 21:50:00,
2013-10-20 16:51:00,77.0,54.7,29.92,SSE,159,0.0,3.0,46,0.00,,SKC,0.00,VWS V14.01,2013-10-20 21:51:00,
2013-10-20 16:56:00,77.3,54.3,29.92,SSE,159,0.0,0.0,45,0.00,,SKC,0.00,VWS V14.01,2013-10-20 21:56:00,
2013-10-20 17:00:00,77.3,54.3,29.92,SSE,159,0.0,4.0,45,0.00,,SKC,0.00,VWS V14.01,2013-10-20 22:00:00,
2013-10-20 17:01:00,77.5,53.9,29.92,SSE,159,0.0,2.0,44,0.00,,SKC,0.00,VWS V14.01,2013-10-20 22:01:00,
2013-10-20 17:06:00,77.6,54.0,29.92,SSE,159,0.0,4.0,44,0.00,,SKC,0.00,VWS V14.01,2013-10-20 22:06:00,
2013-10-20 17:10:00,77.6,54.0,29.92,SSE,159,0.0,3.0,44,0.00,,SKC,0.00,VWS V14.01,2013-10-20 22:10:00,
2013-10-20 17:11:00,77.5,53.3,29.92,SSE,159,0.0,5.0,43,0.00,,SKC,0.00,VWS V14.01,2013-10-20 22:11:00,
2013-10-20 17:16:00,77.0,52.2,29.92,SSE,159,0.0,2.0,42,0.00,,SKC,0.00,VWS V14.01,2013-10-20 22:16:00,
2013-10-20 17:20:00,77.1,52.9,29.92,SSE,159,1.0,9.0,43,0.00,,SKC,0.00,VWS V14.01,2013-10-20 22:20:00,
2013-10-20 17:21:00,76.8,52.6,29.92,SSE,159,0.0,7.0,43,0.00,,SKC,0.00,VWS V14.01,2013-10-20 22:21:00,
2013-10-20 17:26:00,76.6,51.8,29.92,SSE,159,0.0,1.0,42,0.00,,SKC,0.00,VWS V14.01,2013-10-20 22:26:00,
2013-10-20 17:30:00,76.6,52.5,29.92,SSE,159,0.0,7.0,43,0.00,,SKC,0.00,VWS V14.01,2013-10-20 22:30:00,
2013-10-20 17:31:00,76.4,51.6,29.92,SSE,159,0.0,6.0,42,0.00,,SKC,0.00,VWS V14.01,2013-10-20 22:31:00,
2013-10-20 17:36:00,76.0,51.3,29.92,SSE,159,0.0,3.0,42,0.00,,SKC,0.00,VWS V14.01,2013-10-20 22:36:00,
2013-10-20 17:40:00,76.0,51.3,29.92,SSE,159,2.0,6.0,42,0.00,,SKC,0.00,VWS V14.01,2013-10-20 22:40:00,
2013-10-20 17:41:00,75.7,51.6,29.91,SSE,159,0.0,5.0,43,0.00,,SKC,0.00,VWS V14.01,2013-10-20 22:41:00,
2013-10-20 17:46:00,75.5,52.1,29.92,SSE,159,1.0,2.0,44,0.00,,SKC,0.00,VWS V14.01,2013-10-20 22:46:00,
2013-10-20 17:50:00,75.5,51.5,29.91,SSE,159,1.0,5.0,43,0.00,,SKC,0.00,VWS V14.01,2013-10-20 22:50:00,
2013-10-20 17:51:00,75.3,51.3,29.92,SSE,159,1.0,6.0,43,0.00,,SKC,0.00,VWS V14.01,2013-10-20 22:51:00,
2013-10-20 17:56:00,74.9,51.5,29.91,SSE,159,0.0,0.0,44,0.00,,SKC,0.00,VWS V14.01,2013-10-20 22:56:00,
2013-10-20 18:00:00,75.0,51.6,29.91,SSE,159,0.0,6.0,44,0.00,,SKC,0.00,VWS V14.01,2013-10-20 23:00:00,
2013-10-20 18:01:00,74.6,51.9,29.91,SSE,159,0.0,4.0,45,0.00,,SKC,0.00,VWS V14.01,2013-10-20 23:01:00,
2013-10-20 18:06:00,74.1,51.4,29.91,SSE,159,0.0,0.0,45,0.00,,SKC,0.00,VWS V14.01,2013-10-20 23:06:00,
2013-10-20 18:10:00,74.2,51.5,29.91,SSE,159,0.0,4.0,45,0.00,,SKC,0.00,VWS V14.01,2013-10-20 23:10:00,
2013-10-20 18:11:00,73.7,51.7,29.91,SSE,159,1.0,2.0,46,0.00,,SKC,0.00,VWS V14.01,2013-10-20 23:11:00,
2013-10-20 18:16:00,73.3,51.3,29.91,SSE,159,0.0,0.0,46,0.00,,SKC,0.00,VWS V14.01,2013-10-20 23:16:00,
2013-10-20 18:20:00,73.3,51.3,29.91,SSE,159,0.0,2.0,46,0.00,,SKC,0.00,VWS V14.01,2013-10-20 23:20:00,
2013-10-20 18:21:00,73.0,51.0,29.91,SSE,159,0.0,0.0,46,0.00,,SKC,0.00,VWS V14.01,2013-10-20 23:21:00,
2013-10-20 18:26:00,72.8,50.8,29.91,SSE,159,0.0,0.0,46,0.00,,SKC,0.00,VWS V14.01,2013-10-20 23:26:00,
2013-10-20 18:30:00,72.8,51.4,29.91,SSE,159,0.0,0.0,47,0.00,,SKC,0.00,VWS V14.01,2013-10-20 23:30:00,
2013-10-20 18:31:00,72.4,51.0,29.91,SSE,159,0.0,0.0,47,0.00,,SKC,0.00,VWS V14.01,2013-10-20 23:31:00,
2013-10-20 18:36:00,72.1,50.8,29.91,SSE,159,0.0,0.0,47,0.00,,SKC,0.00,VWS V14.01,2013-10-20 23:36:00,
2013-10-20 18:40:00,72.2,50.9,29.91,SSE,159,0.0,0.0,47,0.00,,SKC,0.00,VWS V14.01,2013-10-20 23:40:00,
2013-10-20 18:41:00,71.8,51.1,29.91,SSE,159,0.0,0.0,48,0.00,,SKC,0.00,VWS V14.01,2013-10-20 23:41:00,
2013-10-20 18:46:00,71.3,51.7,29.91,SSE,159,0.0,0.0,50,0.00,,SKC,0.00,VWS V14.01,2013-10-20 23:46:00,
2013-10-20 18:50:00,71.4,51.8,29.91,SSE,159,0.0,0.0,50,0.00,,SKC,0.00,VWS V14.01,2013-10-20 23:50:00,
2013-10-20 18:51:00,70.9,51.3,29.91,SSE,159,0.0,0.0,50,0.00,,SKC,0.00,VWS V14.01,2013-10-20 23:51:00,
2013-10-20 18:56:00,70.5,52.0,29.91,SSE,159,0.0,0.0,52,0.00,,SKC,0.00,VWS V14.01,2013-10-20 23:56:00,
2013-10-20 19:00:00,70.5,51.5,29.91,SSE,159,0.0,0.0,51,0.00,,SKC,0.00,VWS V14.01,2013-10-21 00:00:00,
2013-10-20 19:01:00,70.1,51.7,29.91,SSE,159,0.0,0.0,52,0.00,,SKC,0.00,VWS V14.01,2013-10-21 00:01:00,
2013-10-20 19:06:00,69.6,51.7,29.91,SSE,159,0.0,0.0,53,0.00,,SKC,0.00,VWS V14.01,2013-10-21 00:06:00,
2013-10-20 19:10:00,69.7,51.8,29.91,SSE,159,0.0,0.0,53,0.00,,SKC,0.00,VWS V14.01,2013-10-21 00:10:00,
2013-10-20 19:11:00,69.2,51.9,29.91,SSE,159,0.0,0.0,54,0.00,,SKC,0.00,VWS V14.01,2013-10-21 00:11:00,
2013-10-20 19:16:00,68.9,51.6,29.91,SSE,159,0.0,0.0,54,0.00,,SKC,0.00,VWS V14.01,2013-10-21 00:16:00,
2013-10-20 19:20:00,68.9,51.6,29.91,SSE,159,0.0,0.0,54,0.00,,SKC,0.00,VWS V14.01,2013-10-21 00:20:00,
2013-10-20 19:21:00,68.5,51.7,29.91,SSE,159,0.0,0.0,55,0.00,,SKC,0.00,VWS V14.01,2013-10-21 00:21:00,
2013-10-20 19:25:00,68.2,51.4,29.91,SSE,159,0.0,0.0,55,0.00,,SKC,0.00,VWS V14.01,2013-10-21 00:25:00,
2013-10-20 19:30:00,67.9,51.6,29.91,SSE,159,0.0,0.0,56,0.00,,SKC,0.00,VWS V14.01,2013-10-21 00:30:00,
2013-10-20 19:35:00,67.5,51.3,29.91,SSE,159,0.0,0.0,56,0.00,,SKC,0.00,VWS V14.01,2013-10-21 00:35:00,
2013-10-20 19:40:00,67.2,51.0,29.92,SSE,159,0.0,0.0,56,0.00,,SKC,0.00,VWS V14.01,2013-10-21 00:40:00,
2013-10-20 19:45:00,67.0,50.8,29.92,SSE,159,0.0,0.0,56,0.00,,SKC,0.00,VWS V14.01,2013-10-21 00:45:00,
2013-10-20 19:50:00,66.9,50.7,29.92,SSE,159,0.0,0.0,56,0.00,,SKC,0.00,VWS V14.01,2013-10-21 00:50:00,
2013-10-20 19:55:00,66.8,51.1,29.92,SSE,159,0.0,0.0,57,0.00,,SKC,0.00,VWS V14.01,2013-10-21 00:55:00,
2013-10-20 20:00:00,66.5,51.3,29.92,SSE,159,0.0,0.0,58,0.00,,SKC,0.00,VWS V14.01,2013-10-21 01:00:00,
2013-10-20 20:05:00,66.2,51.5,29.92,SSE,159,0.0,0.0,59,0.00,,SKC,0.00,VWS V14.01,2013-10-21 01:05:00,
2013-10-20 20:10:00,65.9,51.2,29.92,SSE,159,0.0,0.0,59,0.00,,SKC,0.00,VWS V14.01,2013-10-21 01:10:00,
2013-10-20 20:15:00,65.6,50.9,29.92,SSE,159,0.0,0.0,59,0.00,,SKC,0.00,VWS V14.01,2013-10-21 01:15:00,
2013-10-20 20:20:00,65.2,51.0,29.92,SSE,159,0.0,0.0,60,0.00,,SKC,0.00,VWS V14.01,2013-10-21 01:20:00,
2013-10-20 20:25:00,65.0,50.8,29.92,SSE,159,0.0,0.0,60,0.00,,SKC,0.00,VWS V14.01,2013-10-21 01:25:00,
2013-10-20 20:30:00,64.7,51.0,29.92,SSE,159,0.0,0.0,61,0.00,,SKC,0.00,VWS V14.01,2013-10-21 01:30:00,
2013-10-20 20:35:00,64.5,51.2,29.92,SSE,159,0.0,0.0,62,0.00,,SKC,0.00,VWS V14.01,2013-10-21 01:35:00,
2013-10-20 20:40:00,64.4,51.5,29.91,SSE,159,0.0,0.0,63,0.00,,SKC,0.00,VWS V14.01,2013-10-21 01:40:00,
2013-10-20 20:45:00,64.1,51.3,29.92,SSE,159,0.0,0.0,63,0.00,,SKC,0.00,VWS V14.01,2013-10-21 01:45:00,
2013-10-20 20:50:00,63.9,51.1,29.92,SSE,159,0.0,0.0,63,0.00,,SKC,0.00,VWS V14.01,2013-10-21 01:50:00,
2013-10-20 20:55:00,63.6,51.2,29.92,SSE,159,0.0,0.0,64,0.00,,SKC,0.00,VWS V14.01,2013-10-21 01:55:00,
2013-10-20 21:00:00,63.2,50.8,29.92,SSE,159,0.0,0.0,64,0.00,,SKC,0.00,VWS V14.01,2013-10-21 02:00:00,
2013-10-20 21:05:00,62.9,51.0,29.92,SSE,159,0.0,0.0,65,0.00,,SKC,0.00,VWS V14.01,2013-10-21 02:05:00,
2013-10-20 21:10:00,62.6,51.1,29.92,SSE,159,0.0,0.0,66,0.00,,SKC,0.00,VWS V14.01,2013-10-21 02:10:00,
2013-10-20 21:15:00,62.2,51.1,29.92,SSE,159,0.0,0.0,67,0.00,,SKC,0.00,VWS V14.01,2013-10-21 02:15:00,
2013-10-20 21:20:00,61.9,50.8,29.92,SSE,159,0.0,0.0,67,0.00,,SKC,0.00,VWS V14.01,2013-10-21 02:20:00,
2013-10-20 21:25:00,61.6,51.0,29.92,SSE,159,0.0,0.0,68,0.00,,SKC,0.00,VWS V14.01,2013-10-21 02:25:00,
2013-10-20 21:30:00,61.4,51.2,29.92,SSE,159,0.0,0.0,69,0.00,,SKC,0.00,VWS V14.01,2013-10-21 02:30:00,
2013-10-20 21:35:00,61.2,51.0,29.92,SSE,159,0.0,0.0,69,0.00,,SKC,0.00,VWS V14.01,2013-10-21 02:35:00,
2013-10-20 21:40:00,61.1,50.9,29.93,SSE,159,0.0,0.0,69,0.00,,SKC,0.00,VWS V14.01,2013-10-21 02:40:00,
2013-10-20 21:45:00,61.0,51.2,29.93,SSE,159,0.0,0.0,70,0.00,,SKC,0.00,VWS V14.01,2013-10-21 02:45:00,
2013-10-20 21:50:00,60.9,51.1,29.93,SSE,159,0.0,0.0,70,0.00,,SKC,0.00,VWS V14.01,2013-10-21 02:50:00,
2013-10-20 21:55:00,60.8,51.3,29.93,SSE,159,0.0,0.0,71,0.00,,SKC,0.00,VWS V14.01,2013-10-21 02:55:00,
2013-10-20 22:00:00,60.5,51.1,29.93,SSE,159,0.0,0.0,71,0.00,,SKC,0.00,VWS V14.01,2013-10-21 03:00:00,
2013-10-20 22:05:00,60.3,50.9,29.94,SSE,159,0.0,0.0,71,0.00,,SKC,0.00,VWS V14.01,2013-10-21 03:05:00,
2013-10-20 22:10:00,60.1,50.7,29.94,SSE,159,0.0,0.0,71,0.00,,SKC,0.00,VWS V14.01,2013-10-21 03:10:00,
2013-10-20 22:15:00,59.9,50.5,29.94,SSE,159,0.0,0.0,71,0.00,,SKC,0.00,VWS V14.01,2013-10-21 03:15:00,
2013-10-20 22:20:00,59.8,50.8,29.93,SSE,159,0.0,0.0,72,0.00,,SKC,0.00,VWS V14.01,2013-10-21 03:20:00,
2013-10-20 22:25:00,60.0,51.7,29.94,SSE,159,0.0,0.0,74,0.00,,SKC,0.00,VWS V14.01,2013-10-21 03:25:00,
2013-10-20 22:30:00,60.4,51.7,29.94,SSE,159,0.0,0.0,73,0.00,,SKC,0.00,VWS V14.01,2013-10-21 03:30:00,
2013-10-20 22:35:00,60.7,52.0,29.94,SSE,159,0.0,0.0,73,0.00,,SKC,0.00,VWS V14.01,2013-10-21 03:35:00,
2013-10-20 22:40:00,61.0,51.9,29.94,SSE,159,0.0,0.0,72,0.00,,SKC,0.00,VWS V14.01,2013-10-21 03:40:00,
2013-10-20 22:45:00,61.2,52.1,29.94,SSE,159,0.0,0.0,72,0.00,,SKC,0.00,VWS V14.01,2013-10-21 03:45:00,
2013-10-20 22:50:00,61.5,52.8,29.94,SSE,159,0.0,0.0,73,0.00,,SKC,0.00,VWS V14.01,2013-10-21 03:50:00,
2013-10-20 22:55:00,61.8,53.1,29.94,SSE,159,0.0,0.0,73,0.00,,SKC,0.00,VWS V14.01,2013-10-21 03:55:00,
2013-10-20 23:00:00,61.9,53.2,29.94,SSE,159,0.0,0.0,73,0.00,,SKC,0.00,VWS V14.01,2013-10-21 04:00:00,
2013-10-20 23:01:00,61.9,53.2,29.94,SSE,159,0.0,0.0,73,0.00,,SKC,0.00,VWS V14.01,2013-10-21 04:01:00,
2013-10-20 23:06:00,62.0,53.3,29.94,SSE,159,0.0,0.0,73,0.00,,SKC,0.00,VWS V14.01,2013-10-21 04:06:00,
2013-10-20 23:10:00,62.0,53.3,29.94,SSE,159,0.0,0.0,73,0.00,,SKC,0.00,VWS V14.01,2013-10-21 04:10:00,
2013-10-20 23:11:00,62.0,53.6,29.95,SSE,159,0.0,0.0,74,0.00,,SKC,0.00,VWS V14.01,2013-10-21 04:11:00,
2013-10-20 23:16:00,62.1,54.1,29.95,SSE,159,0.0,0.0,75,0.00,,SKC,0.00,VWS V14.01,2013-10-21 04:16:00,
2013-10-20 23:20:00,62.1,54.1,29.95,SSE,159,0.0,0.0,75,0.00,,SKC,0.00,VWS V14.01,2013-10-21 04:20:00,
2013-10-20 23:21:00,62.1,54.1,29.95,SSE,159,0.0,0.0,75,0.00,,SKC,0.00,VWS V14.01,2013-10-21 04:21:00,
2013-10-20 23:26:00,62.1,54.1,29.95,SSE,159,0.0,0.0,75,0.00,,SKC,0.00,VWS V14.01,2013-10-21 04:26:00,
2013-10-20 23:30:00,62.1,54.1,29.95,SSE,159,0.0,0.0,75,0.00,,SKC,0.00,VWS V14.01,2013-10-21 04:30:00,
2013-10-20 23:31:00,62.0,53.6,29.95,SSE,159,0.0,0.0,74,0.00,,SKC,0.00,VWS V14.01,2013-10-21 04:31:00,
2013-10-20 23:36:00,61.8,53.4,29.95,SSE,159,0.0,0.0,74,0.00,,SKC,0.00,VWS V14.01,2013-10-21 04:36:00,
2013-10-20 23:40:00,61.8,53.4,29.95,SSE,159,0.0,0.0,74,0.00,,SKC,0.00,VWS V14.01,2013-10-21 04:40:00,
2013-10-20 23:41:00,61.5,53.2,29.95,SSE,159,0.0,0.0,74,0.00,,SKC,0.00,VWS V14.01,2013-10-21 04:41:00,
2013-10-20 23:46:00,61.2,53.2,29.95,SSE,159,0.0,0.0,75,0.00,,SKC,0.00,VWS V14.01,2013-10-21 04:46:00,
2013-10-20 23:50:00,61.3,53.0,29.95,SSE,159,0.0,0.0,74,0.00,,SKC,0.00,VWS V14.01,2013-10-21 04:50:00,
2013-10-20 23:51:00,60.9,53.3,29.94,SSE,159,0.0,0.0,76,0.00,,SKC,0.00,VWS V14.01,2013-10-21 04:51:00,
2013-10-20 23:56:00,60.6,53.0,29.93,SSE,159,0.0,0.0,76,0.00,,SKC,0.00,VWS V14.01,2013-10-21 04:56:00,